Location: *
(32.8667°N, 13.1833°E)
Time: 01:26:42
(UTC+00:00)

Cosmos 1844 Rocket - Pass Details

Date: 18 July 2019
Orbit: 823 x 846 km, 71.0° (Epoch: 21 August)

Event Time Altitude Azimuth Distance (km) Brightness Sun altitude
Rises 21:53:07 0° 332° (NNW) 3,409 6.9 -32.9°
Reaches altitude 10° 21:55:39 10° 326° (NNW) 2,471 5.9 -33.1°
Enters shadow 21:59:39 39° 293° (WNW) 1,253 3.8 -33.4°
